SCP
0 0 0 0 0 0 0 0 0 0 0 0 0 0 0 0 0 0 0 0 0 0 0 0 0 0 0 0 0 0 0 0 0 0 0 0 0 0 0 0 0 0 0
0 0 0 0 0 0 0 0 0 0 0 0 0 0 0 0 0 0 0 0 0 0 0 0 0 0 0 0 0 0 0 0 0 0 0 0 0 0 0 0 0 0 0
0 0 0 0 0 0 0 0 0 0 0 0 0 0 0 0 0 0 0 0 0 0 0 0 0 0 0 0 0 0 0 0 0 0 0 0 0 0 0 0 0 0 0
0 0 0 0 0 0 0 0 0 0 0 0 0 0 0 0 0 0 0 0 0 0 0 0 0 0 0 0 0 0 0 0 0 0 0 0 0 0 0 0 0 0 0
0 0 0 0 0 0 0 0 0 0 0 0 0 0 0 0 0 0 0 0 0 0 0 0 0 0 0 0 0 0 0 0 0 0 0 0 0 0 0 0 0 0 0
0 0 0 0 0 0 0 0 0 0 0 0 0 0 0 0 0 0 0 0 0 0 0 0 0 0 0 0 0 0 0 0 0 0 0 0 0 0 0 0 0 0 0
0 0 0 0 0 0 0 0 0 0 0 0 0 0 0 0 0 0 0 0 0 0 0 0 0 0 0 0 0 0 0 0 0 0 0 0 0 0 0 0 0 0 0
0 0 0 0 0 0 0 0 0 0 0 0 0 0 0 0 0 0 0 0 0 0 0 0 0 0 0 0 0 0 0 0 0 0 0 0 0 0 0 0 0 0 0
0 0 0 0 0 0 0 0 0 0 0 0 0 0 0 0 0 0 0 0 0 0 0 0 0 0 0 0 0 0 0 0 0 0 0 0 0 0 0 0 0 0 0
0 0 0 0 0 0 0 0 0 0 0 0 0 0 0 0 0 0 0 0 0 0 0 0 0 0 0 0 0 0 0 0 0 0 0 0 0 0 0 0 0 0 0
0 0 0 0 0 0 0 0 0 0 0 0 0 0 0 0 0 0 0 0 0 0 0 0 0 0 0 0 0 0 0 0 0 0 0 0 0 0 0 0 0 0 0
0 0 0 0 0 0 0 0 0 0 0 0 0 0 0 0 0 0 0 0 0 0 0 0 0 0 0 0 0 0 0 0 0 0 0 0 0 0 0 0 0 0 0
0 0 0 0 0 0 0 0 0 0 0 0 0 0 0 0 0 0 0 0 0 0 0 0 0 0 0 0 0 0 0 0 0 0 0 0 0 0 0 0 0 0 0
0 0 0 0 0 0 0 0 0 0 0 0 0 0 0 0 0 0 0 0 0 0 0 0 0 0 0 0 0 0 0 0 0 0 0 0 0 0 0 0 0 0 0
0 0 0 0 0 0 0 0 0 0 0 0 0 0 0 0 0 0 0 0 0 0 0 0 0 0 0 0 0 0 0 0 0 0 0 0 0 0 0 0 0 0 0
0 0 0 0 0 0 0 0 0 0 0 0 0 0 0 0 0 0 0 0 0 0 0 0 0 0 0 0 0 0 0 0 0 0 0 0 0 0 0 0 0 0 0
0 0 0 0 0 0 0 0 0 0 0 0 0 0 0 0 0 0 0 0 0 0 0 0 0 0 0 0 0 0 0 0 0 0 0 0 0 0 0 0 0 0 0
0 0 0 0 0 0 0 0 0 0 0 0 0 0 0 0 0 0 0 0 0 0 0 0 0 0 0 0 0 0 0 0 0 0 0 0 0 0 0 0 0 0 0
0 0 0 0 0 0 0 0 0 0 0 0 0 0 0 0 0 0 0 0 0 0 0 0 0 0 0 0 0 0 0 0 0 0 0 0 0 0 0 0 0 0 0
0 0 0 0 0 0 0 0 0 0 0 0 0 0 0 0 0 0 0 0 0 0 0 0 0 0 0 0 0 0 0 0 0 0 0 0 0 0 0 0 0 0 0
0 0 0 0 0 0 0 0 0 0 0 0 0 0 0 0 0 0 0 0 0 0 0 0 0 0 0 0 0 0 0 0 0 0 0 0 0 0 0 0 0 0 0
0 0 0 0 0 0 0 0 0 0 0 0 0 0 0 0 0 0 0 0 0 0 0 0 0 0 0 0 0 0 0 0 0 0 0 0 0 0 0 0 0 0 0
0 0 0 0 0 0 0 0 0 0 0 0 0 0 0 0 0 0 0 0 0 0 0 0 0 0 0 0 0 0 0 0 0 0 0 0 0 0 0 0 0 0 0
0 0 0 0 0 0 0 0 0 0 0 0 0 0 0 0 0 0 0 0 0 0 0 0 0 0 0 0 0 0 0 0 0 0 0 0 0 0 0 0 0 0 0
0 0 0 0 0 0 0 0 0 0 0 0 0 0 0 0 0 0 0 0 0 0 0 0 0 0 0 0 0 0 0 0 0 0 0 0 0 0 0 0 0 0 0
0 0 0 0 0 0 0 0 0 0 0 0 0 0 0 0 0 0 0 0 0 0 0 0 0 0 0 0 0 0 0 0 0 0 0 0 0 0 0 0 0 0 0
Wind_Speed
6 7 8 8 8 8 8 7 7 6 6 6 6 6 6 5 5 5 5 4 4 3 3 3 3 3 2 2 2 2 3 4 9 7 3 4 5 6 7 6 7 7 8
6 8 9 8 8 9 8 7 7 7 6 6 6 6 6 5 5 5 4 4 3 3 3 3 3 3 4 3 3 4 4 4 6 11 7 5 6 7 8 8 7 7 7
7 8 9 8 8 8 8 7 7 7 6 6 6 6 5 5 5 5 4 3 3 3 3 3 4 4 4 4 4 4 4 5 5 8 10 6 5 5 7 7 7 7 7
7 8 8 7 7 7 7 7 6 6 6 6 5 5 5 4 4 4 3 3 2 2 3 3 3 3 4 5 5 5 5 6 6 8 9 8 7 6 5 7 9 6 6
8 8 7 7 7 7 7 6 6 6 6 5 5 5 4 3 3 3 2 2 3 3 3 3 3 4 5 5 5 5 5 6 6 7 9 9 8 7 7 7 10 10 8
8 8 7 7 7 7 6 6 6 6 5 5 5 4 4 2 4 5 3 2 2 3 4 4 4 4 5 9 11 11 9 8 8 8 9 10 11 9 8 8 10 11 11
8 7 7 7 7 6 6 6 5 4 4 4 4 3 3 3 6 5 5 2 2 2 3 4 4 4 6 6 8 11 10 12 13 10 11 12 12 10 10 12 10 11 12
8 7 6 6 7 6 5 5 4 3 3 3 3 3 2 3 6 5 5 2 2 3 3 4 5 6 6 8 7 7 7 7 10 8 9 11 10 9 9 11 12 12 11
8 7 6 6 7 6 5 4 3 3 2 2 2 2 2 3 6 6 5 1 2 3 4 4 5 6 10 14 9 9 10 8 11 15 16 16 18 18 14 8 8 9 10
8 7 6 5 6 6 5 4 2 2 2 2 2 1 2 2 6 7 7 1 3 4 4 4 5 7 12 14 9 8 11 10 8 9 10 12 11 11 13 7 7 8 9
7 7 6 5 5 5 4 3 3 2 2 1 1 1 2 2 5 7 7 2 3 4 5 5 5 12 15 16 14 8 13 13 9 8 8 8 6 5 5 5 5 6 8
8 7 6 5 4 4 4 3 3 2 2 1 1 1 1 2 4 6 9 8 7 4 5 5 7 15 16 16 12 13 17 13 6 7 7 7 6 6 5 6 6 6 6
8 7 6 5 4 3 4 4 3 2 1 0 0 1 2 2 3 7 8 10 11 6 6 11 14 16 15 11 12 15 10 5 5 6 7 7 5 6 6 5 5 5 5
9 7 6 5 4 3 2 2 2 2 1 1 1 1 2 3 3 3 3 5 7 7 6 8 13 14 11 10 8 7 4 4 5 6 7 6 5 5 5 4 4 5 5
8 6 5 4 4 3 2 1 2 2 2 2 2 2 2 3 5 9 7 5 5 6 7 5 4 4 4 4 4 5 4 4 5 5 5 6 5 5 4 4 3 4 4
7 6 5 4 3 3 2 1 1 1 2 3 2 3 3 6 10 11 12 13 13 12 7 4 5 5 5 6 6 6 5 5 5 5 5 5 5 5 5 4 3 3 4
7 6 4 4 4 3 2 2 1 2 3 3 4 5 6 8 9 10 11 11 10 9 4 4 4 5 5 6 6 6 6 6 5 5 5 5 5 4 4 4 3 3 3
5 5 5 4 3 3 3 2 2 2 1 2 4 6 7 8 8 9 9 7 4 4 2 4 5 5 5 6 6 6 7 6 5 5 5 4 4 4 4 3 3 3 3
5 4 3 3 3 3 2 2 2 2 2 2 2 4 6 7 7 7 6 2 3 3 3 4 4 5 5 6 6 6 6 6 6 5 5 4 4 3 3 3 3 3 3
3 5 4 3 3 3 2 2 2 2 2 2 3 3 3 2 2 3 2 2 3 4 4 5 5 5 5 6 6 6 6 6 5 5 4 4 3 3 3 3 3 2 2
4 4 5 4 3 3 3 3 3 3 3 3 4 5 6 2 3 4 3 3 4 4 5 5 5 5 5 5 5 6 6 6 5 5 5 4 3 3 3 3 3 2 2
4 4 4 4 4 3 3 3 3 3 4 4 4 4 7 3 3 4 4 4 4 4 5 5 5 5 5 5 5 6 6 6 5 5 5 4 4 3 3 3 2 2 2
4 4 4 3 3 4 3 3 3 4 4 4 4 4 4 4 4 5 5 5 5 5 5 4 5 6 5 5 5 5 6 7 6 5 5 5 4 4 3 3 3 3 2
4 5 4 4 4 4 4 4 4 4 4 4 4 4 5 5 5 6 6 5 5 5 5 5 6 8 9 7 5 5 6 7 6 5 6 6 5 4 4 3 4 4 3
4 4 4 4 4 4 4 4 4 5 5 5 5 5 5 5 6 6 6 5 6 6 7 6 5 6 9 10 8 7 9 11 8 5 5 5 5 5 5 4 4 3 3
4 4 4 4 4 4 5 5 5 5 5 5 5 5 5 6 6 6 6 5 6 6 7 6 7 8 9 8 10 11 11 11 10 9 6 5 5 5 4 4 4 4 4
Wind_Direction
99 101 102 100 102 103 102 102 102 95 92 91 89 84 78 71 66 70 65 55 53 38 26 15 352 336 327 317 307 296 284 283 286 291 283 304 304 302 303 295 293 292 294
105 102 101 100 100 100 100 97 96 94 87 88 88 86 80 74 70 71 67 56 51 36 15 2 347 342 330 326 321 307 297 291 290 297 302 303 296 299 298 298 298 295 289
108 107 103 102 103 102 101 97 93 93 87 81 82 83 79 74 71 64 62 53 43 27 6 352 341 341 332 328 320 309 305 304 293 294 299 299 296 298 301 298 291 288 289
115 112 110 108 107 105 100 96 92 92 91 85 81 81 79 76 71 63 55 45 29 12 356 343 336 335 324 321 313 306 306 304 297 294 297 301 299 297 299 307 307 299 294
122 117 115 110 106 103 101 97 92 88 88 89 88 80 75 76 67 64 53 34 16 357 346 336 325 319 311 312 307 305 305 300 300 298 298 302 303 312 310 308 305 306 296
126 122 119 116 110 107 107 103 97 92 89 87 83 84 77 62 47 45 41 24 3 346 333 325 317 312 311 316 312 307 302 298 299 296 295 297 302 305 306 305 305 307 304
127 126 125 123 118 115 113 106 102 97 93 88 81 75 67 42 35 30 24 11 342 325 317 316 316 309 307 301 304 307 300 292 290 287 288 291 296 300 301 299 297 294 292
134 133 133 130 124 121 115 111 105 100 98 92 79 61 50 23 16 11 6 6 319 306 301 300 302 305 307 310 302 297 290 284 287 283 276 283 288 292 288 290 294 293 286
144 145 143 138 133 130 125 118 108 105 95 79 74 49 27 359 360 357 357 332 313 304 297 293 294 294 305 315 311 302 300 294 295 292 289 292 296 300 301 298 296 297 297
155 147 138 135 136 135 129 119 104 105 92 74 55 22 1 340 348 355 358 342 315 311 306 297 291 296 308 313 307 300 300 302 300 300 296 295 293 293 298 289 290 291 293
139 132 128 129 130 126 118 110 115 105 91 67 38 360 348 338 343 349 349 339 310 308 306 304 300 310 311 310 309 298 296 304 303 300 298 295 292 288 288 283 274 274 282
134 132 130 126 120 117 120 118 115 111 110 91 29 357 346 338 339 336 337 331 324 302 295 296 298 307 308 310 309 303 306 308 300 296 295 295 298 298 297 295 286 279 275
135 135 133 126 119 125 134 132 123 119 130 140 15 328 316 315 319 329 326 324 321 311 294 300 305 308 310 308 304 306 306 296 292 291 291 292 293 294 298 297 295 294 292
142 143 143 142 138 134 132 133 141 160 174 187 245 286 296 301 301 299 295 305 310 308 302 300 304 305 304 303 301 302 293 285 285 286 288 290 295 297 295 299 302 311 309
145 148 151 151 148 144 137 160 180 205 207 208 221 238 272 292 299 312 317 307 302 296 307 302 300 303 300 298 298 295 294 296 293 290 291 295 297 297 298 307 306 310 304
153 159 161 155 147 142 143 142 285 286 287 295 293 292 280 295 310 314 315 314 316 317 317 305 303 305 306 308 307 306 300 298 298 297 293 291 294 295 298 304 308 309 307
162 161 157 153 153 155 158 162 186 327 324 329 328 319 311 311 313 316 317 321 328 338 328 306 304 305 305 306 304 302 301 303 302 297 293 292 293 293 294 298 306 309 309
153 152 153 156 157 161 169 175 176 190 253 289 311 314 318 318 318 320 329 346 341 347 310 298 298 299 298 299 300 300 300 301 298 293 290 289 288 290 292 293 297 301 305
155 155 153 151 155 161 166 173 186 201 225 257 290 304 317 320 325 330 350 359 303 299 294 289 290 294 296 296 295 295 294 293 292 290 287 286 285 286 286 288 293 299 307
164 164 157 158 160 166 173 183 196 209 227 245 258 270 291 308 315 316 318 293 285 284 285 285 286 288 291 293 294 294 294 291 291 287 285 283 280 278 280 281 279 283 294
168 169 165 164 180 187 190 199 205 211 224 240 250 263 279 265 268 273 277 274 271 273 276 279 281 284 284 288 291 290 288 287 286 285 284 281 279 280 281 277 274 276 287
172 175 179 187 191 198 204 208 212 221 232 244 255 273 288 278 262 264 266 267 265 264 266 272 276 275 275 279 284 285 283 282 281 279 277 277 277 275 273 271 270 270 263
178 181 188 195 198 206 212 217 221 227 235 243 251 258 264 263 261 262 265 268 269 270 269 266 272 276 274 270 267 267 272 275 273 269 268 269 269 266 264 261 257 260 258
187 191 196 201 204 211 220 227 231 235 239 245 249 253 256 258 261 264 266 268 269 270 268 266 266 271 276 278 272 265 265 270 268 260 254 256 260 260 258 254 251 248 252
194 199 203 207 211 218 225 232 236 240 242 245 248 252 257 259 262 265 266 267 270 272 273 271 268 270 273 275 275 273 275 278 275 262 250 247 249 250 249 247 245 243 244
204 208 212 212 216 221 227 234 239 242 245 248 249 251 255 259 263 265 267 267 271 272 273 271 268 270 273 274 275 276 275 274 270 261 248 241 241 244 239 240 237 235 232